Location: Unspecified
(0.0000°N, 0.0000°E)
Time: 07:05:05
(UTC+00:00)

Courier 1B - Pass Details

Date: 01 October 2023
Orbit: 962 x 1208 km, 28.3° (Epoch: 06 December)

Event Time Altitude Azimuth Distance (km) Brightness Sun altitude
Rises 10:03:47 0° 279° (W) 3,817 10.3 63.3°
Reaches altitude 10° 10:07:32 10° 298° (WNW) 2,911 9.9 64.3°
Maximum altitude 10:12:02 17° 338° (NNW) 2,458 9.7 65.4°
Drops below altitude 10° 10:16:41 10° 17° (NNE) 3,024 10.3 66.5°
Sets 10:20:43 0° 35° (NE) 4,027 10.9 67.5°
